Regional Weather Roundup
Issued by NWS

Home | Current Version | Previous Version | Text Only | Print | Product List | Glossary On
Versions: 1 2 3 4 5 6 7 8 9 10 11 12 13 14 15 16 17 18 19 20 21 22 23 24 25 26 27 28 29 30 31 32 33 34 35 36 37 38 39 40 41 42 43 44 45 46 47 48 49 50
000
ASUS43 KIND 261809
RWRIN

WEATHER ROUNDUP FOR INDIANA
NATIONAL WEATHER SERVICE INDIANAPOLIS IN
200 PM EDT THU APR 26 2018

NOTE: "FAIR" INDICATES FEW OR NO CLOUDS BELOW 12,000 FEET WITH NO
SIGNIFICANT WEATHER AND/OR OBSTRUCTIONS TO VISIBILITY.

* - STATION DOES NOT REPORT WEATHER SUCH AS PRECIPITATION OR FOG.

+ - STATION NOT QUALITY CONTROLLED BY THE NATIONAL WEATHER SERVICE.
    USE DATA WITH CAUTION...ESPECIALLY DEWPOINT AND RELATIVE
    HUMIDITY OBSERVATIONS.

INZ001>003-010>013-019-020-261900-
NORTHWEST INDIANA

CITY           SKY/WX    TMP DP  RH WIND       PRES   REMARKS
GARY /AIRPORT/ MOSUNNY   59  19  21 N8        29.96F
KNOX *+        FAIR      59  34  38 CALM      29.93F
LA PORTE +     FAIR      58  31  37 CALM      29.94F
6HR MIN TEMP:  38; 6HR MAX TEMP:  58;

MICHIGAN CITY+ FAIR      55  36  47 NW7       29.95F
MONTICELLO +   FAIR      59  35  40 NE5       29.93F
6HR MIN TEMP:  31; 6HR MAX TEMP:  58;

RENSSELAER +   FAIR      59  18  20 E3        29.93F

$$

LMZ046-743>745-261900-
SOUTHERN LAKE MICHIGAN

STATION/POSITION TIME  TEMP    WIND        PRES    WAVE
                       AIR SEA DIR/SP/G            HT
                 (UTC) (F)     (DEG/KT/KT) (MB)    (FT)
BURNS HARBOR     1740   42      10/  5/  6 1015.2F
MICHIGAN CITY    1740   45     350/  5/  5   N/A

$$

INZ004-005-014>016-021>024-261900-
NORTH CENTRAL INDIANA

CITY           SKY/WX    TMP DP  RH WIND       PRES   REMARKS
ELKHART        FAIR      61  36  39 CALM      29.94F
GOSHEN         FAIR      58  38  47 CALM      29.93F
6HR MIN TEMP:  35; 6HR MAX TEMP:  59;

LOGANSPORT +   FAIR      57  37  47 NW5       29.93F
ROCHESTER +    FAIR      61  37  41 SE3       29.93F
SOUTH BEND     FAIR      58  33  39 VRB3      29.95F
6HR MIN TEMP:  35; 6HR MAX TEMP:  60;

WARSAW +       FAIR      55  37  50 S6        29.93F

$$

INZ006>009-017-018-025>027-261900-
NORTHEAST INDIANA

CITY           SKY/WX    TMP DP  RH WIND       PRES   REMARKS
ANGOLA *+      FAIR      57  36  44 CALM      29.92F
AUBURN +       FAIR      57  37  47 CALM      29.93F
FORT WAYNE     FAIR      60  39  45 VRB3      29.93F
6HR MIN TEMP:  40; 6HR MAX TEMP:  63;

HUNTINGTON +   FAIR      59  38  45 E7        29.92F
6HR MIN TEMP:  36; 6HR MAX TEMP:  59;

KENDALLVILLE + FAIR      57  30  35 CALM      29.93F

$$

INZ028-029-035-036-043>045-051>053-261900-
WEST CENTRAL INDIANA

CITY           SKY/WX    TMP DP  RH WIND       PRES   REMARKS
CRAWFORDSVL +  FAIR      57  34  43 N5        29.92F
6HR MIN TEMP:  34; 6HR MAX TEMP:  57;

GREENCASTLE +  FAIR      59  32  36 NW3       29.92F
LAFAYETTE      FAIR      59  35  40 N3        29.92F
6HR MIN TEMP:  33; 6HR MAX TEMP:  59;

TERRE HAUTE    FAIR      62  32  32 VRB6      29.91F
6HR MIN TEMP:  43; 6HR MAX TEMP:  62;


$$

INZ030>032-037>040-046>048-054>057-064-065-261900-
CENTRAL INDIANA

CITY           SKY/WX    TMP DP  RH WIND       PRES   REMARKS
ANDERSON       SUNNY     59  37  44 N6        29.91F
COLUMBUS       SUNNY     64  27  24 NW5       29.92S
FISHERS *+     FAIR      59  43  55 N7        29.92F
FRANKFORT +    FAIR      61  37  41 N6        29.94F
6HR MIN TEMP:  37; 6HR MAX TEMP:  62;

GREENWOOD *+   FAIR      58  29  33 W5        29.92F
6HR MIN TEMP:  39; 6HR MAX TEMP:  58;

INDIANAPOLIS   FAIR      60  33  36 NW3       29.92F
6HR MIN TEMP:  40; 6HR MAX TEMP:  61;

-EAGLE CREEK   FAIR      60  35  39 W6        29.91F
6HR MIN TEMP:  38; 6HR MAX TEMP:  61;

KOKOMO +       FAIR      59  38  45 VRB3      29.93F
6HR MIN TEMP:  36; 6HR MAX TEMP:  61;

MARION +       FAIR      58  39  49 CALM      29.92F
MT COMFORT *+  FAIR      59  41  51 NE3       29.91F
SHELBYVILLE    FAIR      61  34  36 MISG      29.90F
6HR MIN TEMP:  40; 6HR MAX TEMP:  61;

ZIONSVILLE +   FAIR      57  38  49 N6        29.92F
6HR MIN TEMP:  34; 6HR MAX TEMP:  57;


$$

INZ033-034-041-042-049-050-058-059-261900-
EAST CENTRAL INDIANA

CITY           SKY/WX    TMP DP  RH WIND       PRES   REMARKS
MUNCIE         FAIR      61  40  45 CALM      29.90F
6HR MIN TEMP:  38; 6HR MAX TEMP:  62;

RICHMOND +     FAIR      61  30  31 SE5       29.90F

$$

INZ060-061-067>069-081>083-085>088-261900-
SOUTHWEST INDIANA

CITY           SKY/WX    TMP DP  RH WIND       PRES   REMARKS
EVANSVILLE     FAIR      64  35  34 W3        29.91F
6HR MIN TEMP:  51; 6HR MAX TEMP:  65;

HUNTINGBURG +  FAIR      63  35  35 W8        29.90F
6HR MIN TEMP:  47; 6HR MAX TEMP:  63;

WASHINGTON +   FAIR      62  24  23 NE6       29.90F
6HR MIN TEMP:  45; 6HR MAX TEMP:  62;


$$

INZ062-063-066-070>080-084-089>092-261900-
SOUTH CENTRAL AND SOUTHEAST INDIANA

CITY           SKY/WX    TMP DP  RH WIND       PRES   REMARKS
BATESVILLE +   SUNNY     61  34  36 MISG      29.89F
BEDFORD +      FAIR      63  21  20 N6        29.90F
BLOOMINGTON    FAIR      62  31  31 VRB3      29.90F
6HR MIN TEMP:  42; 6HR MAX TEMP:  62;

FRENCH LICK *+ FAIR      63  21  20 E6        29.89F
MADISON *+     FAIR      63  27  25 CALM      29.90F
NORTH VERNON + FAIR      61  28  29 CALM      29.90F
SEYMOUR +      FAIR      63  32  31 CALM      29.90F

$$





USA.gov is the U.S. government's official web portal to all federal, state and local government web resources and services.